[[[{"header":{"parameterUnit":"kt","parameterCategory":2,"dx":1,"dy":1,"la1":30.253999710083008,"la2":30.299108505249023,"lo1":-89.0895004272461,"lo2":-89.04439544677734,"nx":28,"ny":28,"refTime":"2022-09-25T21:00:00:Z","depth":0,"parameterNumber":1,"parameterNumberName":"U-component_of_WINDS"},"data":[2.7062,2.7114,2.7132,2.72,2.7228,2.7279,2.7303,2.7337,2.7369,2.7434,2.7475,2.75,2.7541,2.7597,2.7644,2.7655,2.7675,2.768,2.7693,2.7646,2.7641,2.7636,2.7625,2.7684,2.7684,2.7739,2.7739,2.7739,2.7032,2.706,2.71,2.7151,2.7187,2.7193,2.7235,2.7265,2.7311,2.735,2.7391,2.745,2.75,2.7539,2.7591,2.7619,2.7626,2.7632,2.7631,2.7638,2.7589,2.7577,2.7626,2.7626,2.7626,2.7626,2.7626,2.7626,2.6982,2.7012,2.7053,2.7097,2.7127,2.7162,2.7195,2.7223,2.7264,2.7317,2.7331,2.7384,2.7428,2.7498,2.7527,2.7571,2.7568,2.7581,2.7585,2.7588,2.7591,2.7515,2.758,2.758,2.758,2.758,2.758,0,2.6952,2.6964,2.7003,2.7048,2.7081,2.7117,2.7154,2.7175,2.7208,2.7241,2.729,2.7322,2.7385,2.7436,2.7487,2.7515,2.7526,2.7528,2.7538,2.7533,2.7523,2.7532,2.7454,2.7526,2.7526,2.7525,2.7525,2.7525,2.6905,2.6936,2.6986,2.7011,2.7035,2.7075,2.7103,2.7129,2.7158,2.7209,2.7235,2.7284,2.7324,2.7402,2.7437,2.7485,2.7491,2.7517,2.7499,2.7493,2.7495,2.7494,2.7499,2.7521,2.7522,2.7522,2.7522,0,2.6878,2.6905,2.6958,2.7004,2.7017,2.7049,2.709,2.7121,2.7144,2.7191,2.7204,2.7241,2.729,2.732,2.7381,2.7396,2.7457,2.746,2.7443,2.7446,2.7474,2.7472,2.7556,2.757,2.7507,2.7507,2.7508,0,2.6849,2.6889,2.6927,2.6956,2.7002,2.7026,2.7072,2.7096,2.7132,2.7168,2.7183,2.7218,2.725,2.7291,2.7312,2.7366,2.7377,2.7392,2.7398,2.7392,2.739,2.741,2.7408,2.7405,2.7405,2.7405,2.7404,0,2.6805,2.687,2.6917,2.6937,2.6989,2.7012,2.7035,2.7074,2.7101,2.7141,2.7159,2.7204,2.723,2.7266,2.7293,2.7279,2.7358,2.7345,2.7374,2.7374,2.7391,2.739,2.7455,2.7404,2.7403,2.7403,2.7403,0,2.6786,2.6823,2.6886,2.6931,2.6947,2.6978,2.7023,2.7056,2.7097,2.7111,2.7143,2.7156,2.7203,2.7188,2.7255,2.723,2.7255,2.7273,2.7276,2.7283,2.7267,2.7303,2.7359,2.7368,2.7289,2.7288,2.7288,0,2.673,2.68,2.682,2.688,2.6917,2.693,2.6966,2.7,2.7022,2.7058,2.7084,2.7125,2.712,2.7137,2.7165,2.7194,2.7226,2.719,2.7248,2.725,2.7239,2.7291,2.7293,2.7343,2.7276,2.7277,2.7278,0,2.6689,2.6749,2.6758,2.6782,2.6827,2.6857,2.6898,2.6942,2.6965,2.7,2.7037,2.7094,2.7094,2.7121,2.7136,2.7164,2.7205,2.716,2.7162,2.717,2.7271,2.7273,2.7281,2.721,2.7212,2.7213,2.7268,0,2.666,2.6696,2.6721,2.6769,2.6796,2.6833,2.6861,2.6886,2.6898,2.6919,2.6972,2.7007,2.7053,2.7069,2.708,2.7133,2.713,2.7128,2.7117,2.715,2.7169,2.7177,2.7086,2.7086,2.7086,2.7086,0,0,2.6601,2.6653,2.6672,2.671,2.6734,2.6746,2.6785,2.681,2.686,2.6878,2.6871,2.6956,2.6984,2.7046,2.7058,2.7076,2.709,2.7076,2.7133,2.7139,2.7143,2.7164,2.7171,2.7086,2.7086,2.7086,2.7086,0,2.6595,2.6619,2.6654,2.6681,2.672,2.674,2.6749,2.679,2.6806,2.6855,2.6866,2.6901,2.6966,2.6996,2.702,2.7069,2.7076,2.7081,2.7098,2.7131,2.7136,2.7141,2.7162,2.7168,2.7085,2.7085,2.7085,0,2.6562,2.6591,2.661,2.6662,2.6688,2.6724,2.6719,2.6756,2.6784,2.6796,2.6845,2.6868,2.6909,2.6961,2.6986,2.6981,2.7063,2.7041,2.7042,2.7046,2.708,2.7086,2.7092,2.7018,2.7017,2.7017,0,0,2.6554,2.6586,2.6625,2.6662,2.6678,2.6707,2.6729,2.6741,2.6776,2.679,2.6819,2.6854,2.6893,2.6918,2.6955,2.7008,2.7021,2.7031,2.7035,2.7037,2.7042,2.7076,2.7082,2.7016,2.7016,2.7016,0,0,2.655,2.6596,2.66,2.6646,2.6678,2.6719,2.6742,2.6749,2.6785,2.6784,2.6808,2.6819,2.6868,2.689,2.6869,2.6953,2.6941,2.6947,2.6936,2.6941,2.6944,2.6939,2.6869,0,0,0,0,0,2.6557,2.659,2.6593,2.6605,2.667,2.6717,2.6726,2.6746,2.6738,2.6756,2.6782,2.6787,2.6884,2.6866,2.6878,2.6902,2.6998,2.7002,2.7004,2.7004,2.7008,2.7012,0,0,0,0,0,0,2.6562,2.6576,2.6592,2.6634,2.6649,2.6716,2.6707,2.6713,2.6736,2.6736,2.6781,2.6788,2.6807,2.6861,2.6872,2.6894,2.6866,2.7,2.7002,2.7005,2.7005,2.7009,2.7012,0,0,0,0,0,2.6566,2.6577,2.6676,2.6634,2.6647,2.6681,2.6706,2.6711,2.6729,2.6768,2.6775,2.6742,2.6807,2.6818,2.6868,2.6889,2.6858,2.6862,2.7001,2.7003,2.7005,2.7007,0,0,0,0,0,0,2.6569,2.6583,2.6679,2.6684,2.6622,2.6678,2.6687,2.6709,2.676,2.6767,2.673,2.6729,2.6808,2.6816,2.6824,2.6886,2.6852,2.6856,2.6859,2.7003,2.7005,2.7006,0,0,0,0,0,0,2.6578,2.6587,2.6682,2.6666,2.6669,2.6675,2.6683,2.6728,2.6761,2.6719,2.672,2.6729,2.6796,2.6815,2.6821,2.689,2.6848,2.6852,2.6854,2.6856,2.7004,2.7006,0,0,0,0,0,0,2.6582,2.6591,2.6665,2.6667,2.667,2.6726,2.6715,2.6782,2.6745,2.6717,2.6742,2.6741,2.6795,2.6802,2.6819,2.6885,2.6889,2.6848,2.6851,2.6852,2.6854,0,0,0,0,0,0,0,2.6586,2.6524,2.6651,2.6668,2.6671,2.6729,2.673,2.6731,2.6745,2.6744,2.6743,2.6742,2.6826,2.683,2.6834,2.6881,0,0,2.6848,2.6849,0,0,0,0,0,0,0,0,2.652,2.6523,2.6651,2.6652,2.6653,2.6729,2.673,2.6731,2.6744,2.6744,2.6743,2.6742,2.6827,2.683,2.6834,0,0,0,0,0,0,0,0,0,0,0,0,0,0,0,2.6651,2.6652,0,2.6729,2.673,2.6731,2.6744,2.6744,2.6743,2.6742,2.6828,2.6831,2.6834,0,0,0,0,0,0,0,0,0,0,0,0,0,0,0,0,0,0,0,0,0,0,0,0,0,0,0,0,0,0,0,0,0,0,0,0,0,0,0,0,0,0,0,0,0,0,0,0,0,0,0,0,0,0,0,0,0,0,0,0,0,0,0,0,0,0,0,0,0]}],[{"header":{"parameterUnit":"kt","parameterCategory":2,"dx":1,"dy":1,"la1":30.253999710083008,"la2":30.299108505249023,"lo1":-89.0895004272461,"lo2":-89.04439544677734,"nx":28,"ny":28,"refTime":"2022-09-25T21:00:00:Z","depth":0,"parameterNumber":2,"parameterNumberName":"V-component_of_WINDS"},"data":[0.0774,0.0841,0.0842,0.0918,0.0933,0.0984,0.1003,0.1028,0.1048,0.1109,0.1145,0.1154,0.1175,0.1218,0.1256,0.1259,0.1273,0.1292,0.1292,0.1204,0.1191,0.118,0.1162,0.1297,0.1297,0.1381,0.1382,0.1382,0.0697,0.0712,0.0755,0.0797,0.0833,0.0813,0.0846,0.0876,0.0924,0.0951,0.0988,0.1043,0.1087,0.1104,0.1146,0.1175,0.1168,0.1185,0.1181,0.1184,0.109,0.1072,0.119,0.119,0.119,0.119,0.119,0.119,0.0557,0.0599,0.0627,0.0674,0.0697,0.0725,0.0765,0.0776,0.0819,0.0866,0.0863,0.0917,0.0945,0.1001,0.1021,0.1062,0.1043,0.1063,0.1067,0.1071,0.1072,0.0938,0.1071,0.107,0.107,0.107,0.1069,0,0.0455,0.0454,0.0498,0.054,0.0576,0.0611,0.0643,0.0668,0.067,0.0706,0.0757,0.0788,0.0847,0.0894,0.0938,0.0955,0.0938,0.094,0.0953,0.0951,0.0942,0.0941,0.0782,0.0936,0.0935,0.0934,0.0933,0.0933,0.0309,0.0361,0.0394,0.0424,0.0443,0.0494,0.0523,0.0522,0.0554,0.0595,0.0632,0.0682,0.0721,0.0804,0.0819,0.0864,0.0856,0.0913,0.0863,0.0858,0.0849,0.0844,0.0846,0.0921,0.0923,0.0924,0.0925,0,0.0224,0.0232,0.0314,0.0344,0.0353,0.0407,0.0431,0.0475,0.0484,0.0544,0.0558,0.0573,0.0624,0.0631,0.0693,0.0694,0.0775,0.077,0.0762,0.0759,0.0806,0.0799,0.0971,0.099,0.0857,0.0858,0.0859,0,0.01,0.0171,0.0176,0.0224,0.03,0.0298,0.0373,0.0389,0.0416,0.0464,0.0449,0.0494,0.0497,0.0543,0.0546,0.0614,0.0629,0.0631,0.063,0.063,0.0629,0.0644,0.0635,0.0635,0.0634,0.0633,0.0633,0,-0.0036,0.0054,0.0132,0.0154,0.0195,0.0232,0.0251,0.0284,0.0315,0.0357,0.0376,0.0427,0.0453,0.049,0.0493,0.0458,0.058,0.0532,0.0582,0.0581,0.0606,0.0604,0.0757,0.0632,0.0631,0.0631,0.0631,0,-0.0136,-0.0091,0.0025,0.0056,0.008,0.0135,0.0182,0.0231,0.0267,0.0272,0.0306,0.0297,0.0363,0.0314,0.0403,0.0355,0.0381,0.0392,0.0396,0.0399,0.0342,0.042,0.057,0.0583,0.0403,0.0402,0.04,0,-0.0299,-0.0177,-0.0176,-0.0064,-0.0008,-0.0031,0.0029,0.0063,0.0076,0.0124,0.0138,0.0196,0.0162,0.018,0.0224,0.024,0.0302,0.0233,0.0296,0.0298,0.028,0.0419,0.0437,0.0537,0.0376,0.0379,0.0381,0,-0.0423,-0.0369,-0.0348,-0.0326,-0.0277,-0.0227,-0.0157,-0.01,-0.0069,-0.0024,0.0031,0.0117,0.0091,0.0125,0.0125,0.017,0.026,0.0138,0.0139,0.0154,0.0368,0.0383,0.04,0.0249,0.0252,0.0254,0.0362,0,-0.0589,-0.0523,-0.0465,-0.0406,-0.0365,-0.029,-0.028,-0.024,-0.0246,-0.0233,-0.0146,-0.0111,-0.0051,-0.0025,-0.0028,0.0076,0.0059,0.0034,-0.0016,0.0078,0.0113,0.0128,-0.007,-0.0071,-0.0072,-0.0073,0,0,-0.075,-0.0654,-0.0652,-0.0582,-0.0548,-0.057,-0.0493,-0.0461,-0.0396,-0.0373,-0.04,-0.0276,-0.0244,-0.0141,-0.011,-0.0083,-0.0066,-0.0096,0.0035,0.0047,0.0058,0.0095,0.0111,-0.0075,-0.0075,-0.0076,-0.0076,0,-0.0809,-0.0774,-0.0695,-0.0663,-0.0614,-0.0603,-0.0584,-0.0539,-0.0527,-0.0438,-0.0458,-0.0404,-0.0299,-0.0267,-0.0237,-0.0108,-0.0127,-0.0089,-0.0027,0.0023,0.0037,0.0049,0.0088,0.0103,-0.0079,-0.0079,-0.0079,0,-0.0935,-0.0901,-0.086,-0.0778,-0.0745,-0.0682,-0.0732,-0.066,-0.0615,-0.0639,-0.0551,-0.0529,-0.0482,-0.0381,-0.0335,-0.0359,-0.0184,-0.0233,-0.0225,-0.0221,-0.0172,-0.0156,-0.0141,-0.0333,-0.0334,-0.0335,0,0,-0.0987,-0.0923,-0.0885,-0.0789,-0.0768,-0.0748,-0.0711,-0.0712,-0.0668,-0.065,-0.0622,-0.058,-0.0521,-0.0481,-0.0423,-0.0312,-0.0306,-0.0265,-0.0253,-0.0243,-0.0234,-0.0182,-0.0166,-0.0339,-0.0339,-0.0339,0,0,-0.1012,-0.0964,-0.0977,-0.0864,-0.0822,-0.0778,-0.0721,-0.0735,-0.0681,-0.0688,-0.0685,-0.0673,-0.0578,-0.0554,-0.0604,-0.0442,-0.049,-0.0477,-0.0461,-0.0445,-0.0433,-0.0443,-0.065,0,0,0,0,0,-0.1065,-0.0971,-0.0983,-0.0962,-0.0855,-0.0771,-0.0758,-0.0753,-0.079,-0.0746,-0.0725,-0.0745,-0.0582,-0.0627,-0.0606,-0.0551,-0.0385,-0.0377,-0.0369,-0.0322,-0.0306,-0.0292,0,0,0,0,0,0,-0.1057,-0.1031,-0.0985,-0.0937,-0.0913,-0.0775,-0.0837,-0.0833,-0.0795,-0.08,-0.0748,-0.0743,-0.0737,-0.0637,-0.0618,-0.0566,-0.0656,-0.0382,-0.0375,-0.0369,-0.0316,-0.0303,-0.0292,0,0,0,0,0,-0.105,-0.103,-0.0859,-0.0938,-0.0917,-0.0889,-0.084,-0.0837,-0.0808,-0.0773,-0.0769,-0.0808,-0.0736,-0.072,-0.0626,-0.0575,-0.0669,-0.0662,-0.0378,-0.0372,-0.0367,-0.031,0,0,0,0,0,0,-0.1045,-0.1027,-0.0854,-0.0848,-0.0972,-0.0897,-0.0885,-0.0841,-0.0783,-0.0778,-0.0833,-0.0838,-0.0733,-0.0722,-0.0709,-0.0578,-0.0679,-0.0672,-0.0668,-0.0373,-0.0369,-0.0365,0,0,0,0,0,0,-0.1038,-0.1021,-0.0851,-0.0895,-0.0893,-0.0904,-0.0893,-0.081,-0.0782,-0.0846,-0.0849,-0.0836,-0.0752,-0.0722,-0.0713,-0.0584,-0.0687,-0.068,-0.0676,-0.0673,-0.037,-0.0366,0,0,0,0,0,0,-0.1031,-0.1016,-0.0896,-0.0895,-0.0894,-0.0821,-0.0831,-0.0721,-0.082,-0.0849,-0.0828,-0.0832,-0.0752,-0.0742,-0.0715,-0.059,-0.0586,-0.0687,-0.0682,-0.0679,-0.0677,0,0,0,0,0,0,0,-0.1025,-0.1122,-0.0893,-0.0895,-0.0895,-0.0788,-0.0787,-0.0785,-0.082,-0.0824,-0.0827,-0.0831,-0.0725,-0.0718,-0.071,-0.0595,0,0,-0.0688,-0.0684,0,0,0,0,0,0,0,0,-0.1128,-0.1124,-0.0892,-0.0891,-0.089,-0.0788,-0.0787,-0.0785,-0.0821,-0.0824,-0.0827,-0.0829,-0.0723,-0.0717,-0.0711,0,0,0,0,0,0,0,0,0,0,0,0,0,0,0,-0.0892,-0.0891,0,-0.0788,-0.0787,-0.0786,-0.0821,-0.0824,-0.0826,-0.0828,-0.0721,-0.0717,-0.0712,0,0,0,0,0,0,0,0,0,0,0,0,0,0,0,0,0,0,0,0,0,0,0,0,0,0,0,0,0,0,0,0,0,0,0,0,0,0,0,0,0,0,0,0,0,0,0,0,0,0,0,0,0,0,0,0,0,0,0,0,0,0,0,0,0,0,0,0,0]}]]]